Weather History for Perry, FL

Change the Weather History Date:

Wednesday, July 31, 2013

  Actual Average (KCTY) Record (KCTY)
Temperature  
Mean Temperature 80 °F 82 °F  
Max Temperature 91 °F 91 °F 100 °F (1999)
Min Temperature 71 °F 72 °F 67 °F (2014)
Degree Days  
Heating Degree Days 0 0  
Month to date heating degree days 0  
Since 1 June heating degree days 0  
Since 1 July heating degree days 0  
Cooling Degree Days 16 17  
Month to date cooling degree days 508  
Year to date cooling degree days 1434  
Since 1 June cooling degree days 955  
Growing Degree Days 30 (Base 50)    
Moisture  
Dew Point 72 °F    
Average Humidity 80    
Maximum Humidity 100    
Minimum Humidity 55    
Precipitation  
Precipitation 0.32 in 0.20 in 1.74 in (2001)
Month to date precipitation 5.66  
Year to date precipitation 27.92  
Sea Level Pressure  
Sea Level Pressure 30.09 in    
Wind  
Wind Speed 2 mph (SSW)    
Max Wind Speed 12 mph    
Max Gust Speed 18 mph    
Visibility 9 miles    
Events Rain , Thunderstorm    
T = Trace of Precipitation, MM = Missing Value Source: NWS Daily Summary

Daily Weather History Graph

Daily Weather History Graph

Search for Another Location

Airport:

Trip Planner

Search our weather history database for the weather conditions in past years. The results will help you decide how hot, cold, wet, or windy it might be!

Date:

Astronomy

Jul. 31, 2013 Rise Set
Actual Time 6:52 AM EDT 8:28 PM EDT
Civil Twilight 6:26 AM EDT 8:54 PM EDT
Nautical Twilight 5:55 AM EDT 9:25 PM EDT
Astronomical Twilight 5:22 AM EDT 9:57 PM EDT
Moon 1:47 AM EDT (7/31) 3:42 PM EDT (7/31)
Length of Visible Light 14h 27m
Length of Day
13h 35m
Waning Crescent, 32% of the Moon is Illuminated
Jul 31
Waning Crescent
Aug 6
New
Aug 14
First Quarter
Aug 20
Full
Aug 28
Last Quarter

Hourly Weather History & Observations

Time (EDT) Temp. Heat Index Dew Point Humidity Pressure Visibility Wind Dir Wind Speed Gust Speed Precip Events Conditions
12:15 AM 73.4 °F - 69.8 °F 88% 30.14 in 10.0 mi Calm Calm - N/A   Clear
12:35 AM 73.4 °F - 69.8 °F 88% 30.14 in 10.0 mi Calm Calm - N/A   Clear
12:53 AM 75.0 °F - 71.1 °F 87% 30.12 in - Calm Calm - N/A   Unknown
12:55 AM 73.4 °F - 69.8 °F 88% 30.13 in 10.0 mi Calm Calm - N/A   Clear
1:15 AM 73.4 °F - 71.6 °F 94% 30.13 in 10.0 mi Calm Calm - N/A   Clear
1:35 AM 73.4 °F - 71.6 °F 94% 30.12 in 10.0 mi East 3.5 mph - N/A   Clear
1:53 AM 75.0 °F - 71.1 °F 87% 30.11 in - Calm Calm - N/A   Unknown
1:55 AM 73.4 °F - 69.8 °F 88% 30.12 in 10.0 mi Calm Calm - N/A   Clear
2:15 AM 73.4 °F - 69.8 °F 88% 30.12 in 10.0 mi Calm Calm - N/A   Clear
2:35 AM 73.4 °F - 69.8 °F 88% 30.12 in 10.0 mi Calm Calm - N/A   Clear
2:53 AM 73.9 °F - 70.0 °F 87% 30.10 in - Calm Calm - N/A   Unknown
3:15 AM 71.6 °F - 69.8 °F 94% 30.10 in 10.0 mi Calm Calm - N/A   Clear
3:35 AM 71.6 °F - 69.8 °F 94% 30.10 in 10.0 mi Calm Calm - N/A   Scattered Clouds
3:53 AM 73.0 °F - 70.0 °F 90% 30.09 in - Calm Calm - N/A   Unknown
3:55 AM 71.6 °F - 69.8 °F 94% 30.10 in 10.0 mi Calm Calm - N/A   Clear
4:15 AM 71.6 °F - 69.8 °F 94% 30.09 in 10.0 mi Calm Calm - N/A   Clear
4:35 AM 71.6 °F - 69.8 °F 94% 30.10 in 10.0 mi Calm Calm - N/A   Clear
4:53 AM 73.9 °F - 70.0 °F 87% 30.08 in - Calm Calm - N/A   Unknown
4:55 AM 71.6 °F - 69.8 °F 94% 30.09 in 7.0 mi Calm Calm - N/A   Clear
5:15 AM 71.6 °F - 69.8 °F 94% 30.10 in 10.0 mi Calm Calm - N/A   Clear
5:35 AM 71.6 °F - 69.8 °F 94% 30.10 in 10.0 mi Calm Calm - N/A   Clear
5:53 AM 73.0 °F - 70.0 °F 90% 30.09 in - Calm Calm - N/A   Unknown
5:55 AM 71.6 °F - 69.8 °F 94% 30.10 in 7.0 mi Calm Calm - N/A   Clear
6:15 AM 71.6 °F - 69.8 °F 94% 30.10 in 5.0 mi Calm Calm - N/A   Clear
6:35 AM 71.6 °F - 69.8 °F 94% 30.10 in 5.0 mi Calm Calm - N/A   Clear
6:53 AM 73.0 °F - 70.0 °F 90% 30.10 in - Calm Calm - N/A   Unknown
6:55 AM 71.6 °F - 69.8 °F 94% 30.11 in 7.0 mi Calm Calm - N/A   Clear
7:15 AM 71.6 °F - 69.8 °F 94% 30.11 in 7.0 mi Calm Calm - N/A   Clear
7:35 AM 71.6 °F - 69.8 °F 94% 30.11 in 7.0 mi Calm Calm - N/A   Clear
7:53 AM 75.9 °F - 72.0 °F 87% 30.10 in - Calm Calm - N/A   Unknown
7:55 AM 71.6 °F - 71.6 °F 100% 30.12 in 10.0 mi Calm Calm - N/A   Clear
8:15 AM 73.4 °F - 71.6 °F 94% 30.12 in 10.0 mi Calm Calm - N/A   Clear
8:35 AM 75.2 °F - 71.6 °F 89% 30.12 in 10.0 mi Calm Calm - N/A   Clear
8:53 AM 80.1 °F 83.8 °F 72.0 °F 76% 30.11 in - Calm Calm - 0.01 in   Unknown
8:55 AM 77.0 °F - 73.4 °F 89% 30.13 in 10.0 mi Calm Calm - N/A   Clear
9:15 AM 78.8 °F - 73.4 °F 83% 30.13 in 10.0 mi Calm Calm - N/A   Clear
9:35 AM 80.6 °F 85.4 °F 73.4 °F 79% 30.13 in 10.0 mi North 4.6 mph - N/A   Clear
9:53 AM 82.9 °F 89.4 °F 73.9 °F 74% 30.12 in - Calm Calm - N/A   Unknown
9:55 AM 80.6 °F 85.4 °F 73.4 °F 79% 30.13 in 10.0 mi Calm Calm - N/A   Clear
10:15 AM 82.4 °F 88.2 °F 73.4 °F 74% 30.13 in 10.0 mi NW 3.5 mph - N/A   Clear
10:35 AM 82.4 °F 88.2 °F 73.4 °F 74% 30.14 in 10.0 mi Calm Calm - N/A   Scattered Clouds
10:53 AM 86.0 °F 95.1 °F 75.0 °F 70% 30.12 in - Calm Calm - N/A   Unknown
10:55 AM 84.2 °F 90.9 °F 73.4 °F 70% 30.14 in 10.0 mi Calm Calm - N/A   Scattered Clouds
11:15 AM 84.2 °F 90.9 °F 73.4 °F 70% 30.13 in 10.0 mi SE 3.5 mph - N/A   Scattered Clouds
11:35 AM 86.0 °F 93.4 °F 73.4 °F 66% 30.13 in 10.0 mi SW 4.6 mph - N/A   Mostly Cloudy
11:53 AM 88.0 °F 96.5 °F 73.9 °F 63% 30.12 in - SW 4.6 mph - N/A   Unknown
11:55 AM 86.0 °F 91.8 °F 71.6 °F 62% 30.13 in 10.0 mi SW 4.6 mph - N/A   Scattered Clouds
12:15 PM 86.0 °F 93.4 °F 73.4 °F 66% 30.12 in 10.0 mi WSW 3.5 mph - N/A   Scattered Clouds
12:35 PM 89.6 °F 96.2 °F 71.6 °F 55% 30.11 in 10.0 mi West 5.8 mph - N/A   Scattered Clouds
12:53 PM 89.1 °F 97.0 °F 73.0 °F 59% 30.09 in - SW 10.4 mph - N/A   Unknown
12:55 PM 87.8 °F 93.8 °F 71.6 °F 58% 30.10 in 10.0 mi SW 11.5 mph - N/A   Scattered Clouds
1:15 PM 78.8 °F - 69.8 °F 74% 30.10 in 1.2 mi East 6.9 mph - 0.18 in Rain Heavy Rain
1:35 PM 80.6 °F 86.2 °F 75.2 °F 84% 30.09 in 10.0 mi Calm Calm - 0.18 in   Scattered Clouds
1:53 PM 87.1 °F 98.8 °F 77.0 °F 72% 30.07 in - East 5.8 mph - 0.18 in   Unknown
1:55 PM 84.2 °F 92.3 °F 75.2 °F 74% 30.09 in 10.0 mi ESE 6.9 mph - 0.18 in Thunderstorm Scattered Clouds
2:15 PM 84.2 °F 90.9 °F 73.4 °F 70% 30.08 in 10.0 mi SE 6.9 mph - N/A Thunderstorm Mostly Cloudy
2:35 PM 86.0 °F 93.4 °F 73.4 °F 66% 30.08 in 10.0 mi South 5.8 mph - N/A Thunderstorm Thunderstorm
2:53 PM 86.0 °F 93.8 °F 73.9 °F 67% 30.06 in - SE 10.4 mph - N/A   Unknown
2:55 PM 86.0 °F 91.8 °F 71.6 °F 62% 30.08 in 10.0 mi SE 9.2 mph - N/A Thunderstorm Thunderstorm
3:15 PM 84.2 °F 90.9 °F 73.4 °F 70% 30.06 in 10.0 mi SE 6.9 mph - N/A   Scattered Clouds
3:35 PM 87.8 °F 93.8 °F 71.6 °F 58% 30.06 in 10.0 mi SSE 4.6 mph - N/A Thunderstorm Thunderstorm
3:53 PM 89.1 °F 99.1 °F 75.0 °F 63% 30.03 in - SSE 5.8 mph - N/A   Unknown
3:55 PM 87.8 °F 95.6 °F 73.4 °F 62% 30.04 in 10.0 mi SSE 5.8 mph - N/A   Scattered Clouds
4:15 PM 87.8 °F 93.8 °F 71.6 °F 58% 30.04 in 10.0 mi SSW 9.2 mph - N/A   Mostly Cloudy
4:35 PM 89.6 °F 96.2 °F 71.6 °F 55% 30.04 in 10.0 mi SSW 6.9 mph - N/A   Scattered Clouds
4:53 PM 90.0 °F 97.9 °F 73.0 °F 57% 30.02 in - SW 9.2 mph - N/A   Unknown
4:55 PM 87.8 °F 93.8 °F 71.6 °F 58% 30.03 in 10.0 mi SW 8.1 mph - N/A   Scattered Clouds
5:15 PM 87.8 °F 92.6 °F 69.8 °F 55% 30.03 in 10.0 mi SSW 8.1 mph - N/A   Scattered Clouds
5:35 PM 87.8 °F 93.8 °F 71.6 °F 58% 30.04 in 10.0 mi SW 9.2 mph - N/A   Scattered Clouds
5:53 PM 88.0 °F 95.6 °F 73.0 °F 61% 30.02 in - South 8.1 mph - N/A   Unknown
5:55 PM 86.0 °F 91.8 °F 71.6 °F 62% 30.03 in 10.0 mi South 5.8 mph - N/A   Scattered Clouds
6:15 PM 86.0 °F 93.4 °F 73.4 °F 66% 30.05 in 10.0 mi SW 4.6 mph - N/A Thunderstorm Scattered Clouds
6:35 PM 84.2 °F 90.9 °F 73.4 °F 70% 30.05 in 10.0 mi SW 6.9 mph - N/A   Clear
6:53 PM 84.9 °F 92.1 °F 73.9 °F 69% 30.02 in - SSW 4.6 mph - N/A   Unknown
6:55 PM 82.4 °F 88.2 °F 73.4 °F 74% 30.04 in 10.0 mi SW 5.8 mph - N/A Thunderstorm Clear
7:15 PM 82.4 °F 88.2 °F 73.4 °F 74% 30.04 in 10.0 mi West 3.5 mph - N/A   Clear
7:35 PM 82.4 °F 88.2 °F 73.4 °F 74% 30.04 in 10.0 mi Calm Calm - N/A Thunderstorm Thunderstorm
7:53 PM 82.9 °F 90.2 °F 75.0 °F 77% 30.04 in - NW 9.2 mph - N/A   Unknown
7:55 PM 80.6 °F 85.4 °F 73.4 °F 79% 30.05 in 10.0 mi NNW 8.1 mph - N/A Thunderstorm Clear
8:15 PM 78.8 °F - 69.8 °F 74% 30.06 in 10.0 mi NNW 10.4 mph 18.4 mph N/A Thunderstorm Thunderstorm
8:35 PM 77.0 °F - 69.8 °F 78% 30.08 in 10.0 mi NNW 10.4 mph - N/A Thunderstorm Clear
8:53 PM 77.0 °F - 71.1 °F 82% 30.06 in - North 6.9 mph - N/A   Unknown
8:55 PM 75.2 °F - 69.8 °F 83% 30.07 in 10.0 mi North 5.8 mph - N/A   Scattered Clouds
9:15 PM 75.2 °F - 69.8 °F 83% 30.07 in 10.0 mi North 4.6 mph - N/A Rain , Thunderstorm Rain
9:35 PM 73.4 °F - 71.6 °F 94% 30.07 in 5.0 mi Calm Calm - 0.05 in Rain Heavy Rain
9:53 PM 75.0 °F - 72.0 °F 90% 30.04 in - ESE 3.5 mph - 0.11 in   Unknown
9:55 PM 73.4 °F - 71.6 °F 94% 30.05 in 4.0 mi Calm Calm - 0.12 in Rain Heavy Rain
10:15 PM 73.4 °F - 69.8 °F 88% 30.06 in 10.0 mi Calm Calm - 0.01 in Rain Light Rain
10:35 PM 73.4 °F - 69.8 °F 88% 30.06 in 10.0 mi Calm Calm - 0.01 in   Scattered Clouds
10:53 PM 75.0 °F - 72.0 °F 90% 30.04 in - Calm Calm - 0.01 in   Unknown
10:55 PM 73.4 °F - 71.6 °F 94% 30.05 in 10.0 mi Calm Calm - 0.01 in   Clear
11:15 PM 73.4 °F - 71.6 °F 94% 30.06 in 7.0 mi Calm Calm - N/A   Clear
11:35 PM 73.4 °F - 71.6 °F 94% 30.05 in 10.0 mi Calm Calm - N/A   Clear
11:53 PM 75.0 °F - 72.0 °F 90% 30.04 in - Calm Calm - N/A   Unknown
11:55 PM 73.4 °F - 71.6 °F 94% 30.05 in 10.0 mi Calm Calm - N/A   Clear